Location: Morosaglia
(42.4360°N, 9.3069°E)
Time: 01:13:42
(UTC+00:00)

Daily predictions for brighter satellites

Satellite Brightness Start Highest point End
(mag) Time Altitude Azimuth Time Altitude Azimuth Time Altitude Azimuth
STARLINK-1303 4.1 00:05:53 51° NE 00:05:53 51° NE 00:08:47 10° NE
Cosmos 1570 Rocket 3.9 00:04:53 66° SSW 00:05:41 87° WNW 00:11:00 10° NNE
Cosmos 1709 Rocket 3.9 00:05:05 53° S 00:06:39 88° E 00:12:52 10° N
Cosmos 1763 Rocket 3.9 00:05:58 45° WSW 00:06:53 51° WNW 00:11:50 10° N
Cosmos 1400 Rocket 4.2 00:04:37 10° N 00:08:22 32° ENE 00:09:11 30° E
STARLINK-1312 3.9 00:09:12 56° NE 00:09:12 56° NE 00:12:17 10° NE
Cosmos 2227 Rocket 2.8 00:04:48 10° NW 00:10:01 38° WSW 00:10:10 38° WSW
Cosmos 2084 Rocket 3.7 00:09:43 10° NNW 00:14:13 72° NE 00:14:58 57° ESE
SL-16 R/B 3.7 00:10:23 15° SE 00:14:57 38° ENE 00:20:33 10° N
Cosmos 1758 Rocket 3.4 00:15:28 77° W 00:15:33 77° W 00:19:59 10° N
STARLINK-75 4.4 00:18:02 37° N 00:18:02 37° N 00:20:38 10° NE
STARLINK-48 4.2 00:19:05 45° E 00:19:05 45° E 00:22:00 10° ENE
IRAS Rocket 4.3 00:18:05 41° SE 00:20:04 71° ENE 00:25:35 10° N
STARLINK-1283 3.8 00:20:03 61° WNW 00:20:19 63° NNW 00:24:26 10° NE
STARLINK-1313 4.5 00:21:38 35° N 00:21:38 35° N 00:23:54 10° NE
STARLINK-80 3.8 00:21:06 60° NNW 00:21:06 60° NNW 00:24:47 10° NE
STARLINK-1279 4.5 00:22:32 35° N 00:22:32 35° N 00:24:50 10° NE
STARLINK-1298 4.4 00:23:16 36° NNE 00:23:16 36° NNE 00:25:29 10° NE
STARLINK-1293 4.4 00:24:09 36° NNE 00:24:09 36° NNE 00:26:25 10° NE
CZ-4 R/B 4.4 00:19:40 10° N 00:24:08 43° WNW 00:24:50 40° W
SL-16 R/B 3.4 00:22:44 25° SE 00:24:18 29° ESE 00:29:05 10° NE
Cosmos 2208 Rocket 4.0 00:23:37 55° SW 00:24:41 72° WNW 00:30:03 10° NNE
STARLINK-1255 4.4 00:25:54 37° N 00:25:54 37° N 00:28:12 10° NE
STARLINK-22 4.3 00:26:16 39° N 00:26:16 39° N 00:28:53 10° NE
STARLINK-1297 3.8 00:26:32 56° NNW 00:26:32 56° NNW 00:29:53 10° NE
Cosmos 2285 Rocket 4.0 00:23:48 10° NNW 00:30:06 67° WSW 00:31:55 46° SSW
MOZ.5/SAFIR/RUBIN 5/SL-8 4.4 00:29:16 34° SE 00:30:54 50° ENE 00:35:24 10° N
USA 81 4.2 00:30:17 49° WSW 00:31:14 57° W 00:36:27 10° N
USA 215 3.1 00:28:06 20° SE 00:32:49 75° SW 00:39:24 10° NW
CZ-2D R/B 2.9 00:28:29 10° NNE 00:33:23 39° E 00:35:02 31° SE
Cosmos 1953 Rocket 3.4 00:33:32 75° S 00:33:55 89° WSW 00:38:21 10° N
Cosmos-2242 2.9 00:30:08 10° NNW 00:34:22 67° W 00:34:23 67° W
Meteor 2-10 Rocket 3.9 00:30:01 10° NNW 00:34:50 44° W 00:35:16 43° WSW
Cosmos 2221 4.3 00:33:22 10° NNE 00:37:06 27° ENE 00:39:27 17° ESE
STARLINK-1310 4.3 00:37:58 41° ESE 00:37:58 41° ESE 00:41:22 10° ENE
STARLINK-1029 4.0 00:39:04 45° NNE 00:39:04 45° NNE 00:41:27 10° NE
STARLINK-34 4.1 00:40:01 40° N 00:40:01 40° N 00:42:27 10° NE
CZ-4C R/B 4.3 00:38:34 34° SE 00:40:05 51° ENE 00:44:24 10° N
GP-B 3.3 00:37:42 10° N 00:42:07 67° E 00:42:59 53° SE
STARLINK-1319 4.1 00:42:43 46° ESE 00:42:43 46° ESE 00:46:21 10° ENE
Cosmos 540 Rocket 3.9 00:41:07 41° WSW 00:42:23 50° WNW 00:47:22 10° N
STARLINK-1272 4.2 00:42:02 39° NW 00:42:26 41° NNW 00:45:49 10° NE
STARLINK-62 4.1 00:43:45 39° N 00:43:45 39° N 00:46:17 10° NE
Cosmos 2360 Rocket 4.2 00:43:57 13° SE 00:46:42 19° E 00:50:29 10° ENE
STARLINK-1277 3.9 00:47:31 52° SE 00:47:31 52° SE 00:51:22 10° ENE
STARLINK-1307 4.4 00:46:48 36° WNW 00:47:36 41° NNW 00:51:09 10° NE
Helios 1B rocket 4.0 00:46:31 10° NNW 00:49:48 23° WNW 00:50:24 22° W
STARLINK-1290 4.5 00:50:11 33° WNW 00:51:07 39° NNW 00:54:39 10° NE
STARLINK-1276 3.7 00:52:19 58° SE 00:52:19 58° SE 00:56:23 10° ENE
Cosmos 1980 Rocket 2.7 00:51:50 34° WSW 00:53:51 49° WNW 00:59:21 10° NNE
Cosmos 2074 Rocket 4.0 00:51:22 38° S 00:54:00 82° E 01:00:19 10° N
STARLINK-1305 3.6 00:57:04 63° SSE 00:57:15 64° SE 01:01:21 10° ENE
STARLINK-1306 3.5 00:57:24 65° S 00:57:42 68° SE 01:01:53 10° ENE
Cosmos 1455 4.1 00:58:08 10° NW 01:00:05 18° WNW 01:00:05 18° WNW
STARLINK-1262 3.5 01:01:53 65° S 01:02:15 70° SE 01:06:23 10° ENE
CZ-4B R/B 4.1 00:57:08 10° NNE 01:02:17 53° E 01:04:34 31° SSE
Meteor 1-11 4.3 01:03:54 40° SW 01:05:46 62° WNW 01:11:19 10° N
STARLINK-1300 3.5 01:06:40 63° SSW 01:07:13 76° SE 01:11:22 10° NE
Lacrosse 4 Rocket 3.8 01:07:01 10° WNW 01:07:20 11° WNW 01:07:20 11° WNW
ADEOS II 3.3 01:06:39 10° NNE 01:11:26 34° E 01:14:40 18° SSE
STARLINK-1295 3.5 01:11:26 59° SW 01:12:10 83° SE 01:16:20 10° NE
NOSS 2-1 (C) 2.7 01:12:05 78° SW 01:12:16 86° NW 01:15:47 10° NE
Cosmos 2263 Rocket 2.1 01:06:43 10° NNW 01:12:20 88° WSW 01:15:58 23° SSE
UNK 3.6 01:11:40 41° S 01:13:17 83° WSW 01:17:53 10° NNW
Timation 1 Rocket 4.4 01:08:01 10° NNW 01:13:51 57° WSW 01:16:19 33° S
IRS-1D 4.3 01:09:42 10° NNE 01:14:46 47° E 01:17:31 24° SSE
STARLINK-64 3.8 01:14:12 42° WNW 01:14:58 52° NNW 01:18:30 10° NE
SL-4 R/B 2.6 01:10:53 10° NW 01:15:43 69° NNE 01:20:21 10° ESE
AQUA 3.9 01:11:42 10° NNE 01:16:28 69° ESE 01:18:24 35° S
STARLINK-1287 3.5 01:16:12 53° SW 01:17:09 90° NW 01:21:19 10° NE
NOSS 2-1 (D) 2.8 01:16:50 67° WSW 01:17:10 75° NW 01:20:42 10° NNE
USA 229 DEB 3.9 01:10:42 10° NW 01:18:04 87° NE 01:25:44 10° SE
USA 229 3.9 01:10:49 10° NW 01:18:10 86° NE 01:25:51 10° SE
NOSS 3-1 (C) 4.1 01:11:18 10° NW 01:19:00 86° SW 01:27:46 10° SSE
Cosmos 2184 Rocket 4.0 01:16:26 34° SSW 01:19:11 67° W 01:25:20 10° N
NPP 3.6 01:15:03 10° NNE 01:20:28 89° WNW 01:22:54 34° SSW
ARIANE 5 R/B 4.3 01:17:03 10° NE 01:21:07 24° E 01:25:02 10° SSE
CZ-4C R/B 4.4 01:18:13 10° WNW 01:22:05 19° NNW 01:26:25 10° NNE
Cosmos 1892 3.3 01:21:53 34° SSE 01:23:10 51° E 01:26:51 10° NNE
BREEZE-M DEB (TANK) 3.3 01:23:13 26° NNW 01:23:30 27° NNW 01:25:48 10° NE
STARLINK-1299 3.8 01:24:06 37° WSW 01:25:39 68° NW 01:29:54 10° NE
STARLINK-1302 3.6 01:25:46 41° WSW 01:27:06 77° NW 01:31:16 10° NE
NOSS 3-1 (A) 4.3 01:19:30 10° NNW 01:27:09 76° NE 01:35:53 10° SE
Cosmos 1610 Rocket 4.4 01:24:10 30° S 01:27:27 86° W 01:33:41 10° N
BREEZE-M DEB (TANK) 4.0 01:26:42 10° NW 01:28:32 19° N 01:30:31 10° ENE
STARLINK-24 4.4 01:28:48 33° SSE 01:29:30 36° SE 01:33:12 10° ENE
Cosmos 1869 3.1 01:27:48 10° N 01:31:41 85° W 01:33:00 40° S
STARLINK-1273 3.7 01:30:32 37° WSW 01:32:05 71° NW 01:36:13 10° NE
Cosmos 2322 Rocket 2.1 01:29:42 32° SSW 01:32:26 86° ESE 01:38:05 10° NNE
In-Cosmos 22 Rocket 4.2 01:31:01 27° S 01:34:12 80° E 01:39:42 10° NNE
STARLINK-1288 3.8 01:35:19 32° WSW 01:37:03 65° NNW 01:41:11 10° NE
STARLINK-61 3.4 01:35:51 41° WSW 01:37:07 83° NW 01:41:04 10° NE
STARLINK-81 4.0 01:38:56 34° SSE 01:39:36 38° SE 01:43:00 10° ENE
STARLINK-54 3.8 01:40:39 38° S 01:41:23 44° SE 01:44:50 10° ENE
Cosmos 1076 Rocket 3.5 01:39:51 31° S 01:41:53 87° E 01:46:17 10° N
STARLINK-1308 4.0 01:40:08 28° WSW 01:42:06 60° NNW 01:46:12 10° NE
Resurs 1-4 Rocket 2.6 01:37:12 10° N 01:42:19 49° WNW 01:44:54 27° SW
STARLINK-77 3.9 01:42:03 35° S 01:42:51 41° SE 01:46:17 10° ENE
Cosmos 2151 4.3 01:40:30 14° SSE 01:43:43 36° E 01:47:41 10° NNE
Cosmos 1400 Rocket 4.5 01:41:37 10° NW 01:44:35 19° W 01:44:45 19° W
H-2A R/B 4.4 01:42:29 10° ESE 01:46:05 25° ENE 01:49:44 10° NNE
Cosmos 1125 Rocket 3.7 01:41:17 10° NNW 01:46:17 48° WSW 01:48:54 26° SSW
STARLINK-79 3.8 01:46:45 36° S 01:47:43 46° SE 01:51:12 10° ENE
Cosmos 962 Rocket 4.5 01:44:45 20° S 01:49:09 84° E 01:55:22 10° N
STARLINK-78 3.7 01:48:20 36° S 01:49:21 48° SE 01:52:51 10° ENE
STARLINK-1017 4.4 01:47:56 28° S 01:49:25 38° SE 01:53:17 10° ENE
STARLINK-52 4.0 01:46:17 10° NW 01:49:25 47° NNE 01:52:32 10° ESE
STARLINK-57 3.6 01:49:58 37° SSW 01:51:02 53° SE 01:54:34 10° ENE
Cosmos 1408 2.8 01:49:31 27° S 01:51:22 68° E 01:55:02 10° NNE
STARLINK-1304 4.2 01:49:41 23° W 01:52:03 52° NNW 01:56:07 10° NE
STARLINK-49 3.6 01:51:26 35° SSW 01:52:33 51° SE 01:56:05 10° ENE
Cosmos 2154 Rocket 4.2 01:49:52 25° SSW 01:53:32 57° WNW 01:59:40 10° N
STARLINK-27 3.6 01:53:02 35° SSW 01:54:13 53° SE 01:57:46 10° ENE
STARLINK-1023 4.3 01:52:43 28° S 01:54:22 42° SE 01:58:17 10° ENE
GEOS 3 Rocket 3.5 01:50:25 10° SSE 01:55:35 81° SW 02:00:54 10° NW
STARLINK-74 3.5 01:54:35 34° SSW 01:55:50 55° SE 01:59:24 10° ENE
STARLINK-39 3.5 01:56:10 34° SSW 01:57:28 57° SE 02:01:03 10° ENE
Cosmos 1825 2.8 01:55:27 18° SSE 01:57:58 52° E 02:01:38 10° NNE
Cosmos 2237 4.3 01:54:30 22° SSW 01:58:16 77° ESE 02:04:01 10° NNE
SL-16 R/B 3.2 01:55:29 23° SW 01:58:30 36° W 02:04:10 10° NNW
STARLINK-31 3.4 01:57:45 33° SSW 01:59:07 60° SE 02:02:42 10° ENE
STARLINK-1007 4.2 01:57:32 27° SSW 01:59:22 46° SE 02:03:21 10° ENE
SL-08 R/B 3.5 01:55:48 10° SSE 02:00:24 70° ENE 02:05:00 10° N
STARLINK-69 3.3 01:59:20 33° SW 02:00:46 68° SE 02:04:21 10° ENE
STARLINK-21 3.3 02:00:55 32° SSW 02:02:24 66° SE 02:06:00 10° ENE
STARLINK-45 3.2 02:02:35 31° SW 02:04:10 75° SE 02:07:48 10° NE
STARLINK-1048 4.0 02:02:18 26° SSW 02:04:19 51° SE 02:08:20 10° ENE
IRS-P3 4.1 02:00:31 10° NNE 02:05:52 86° WNW 02:09:52 18° SSW
Cosmos 1844 Rocket 3.4 02:01:21 10° NNW 02:06:52 56° ENE 02:12:19 10° SE
STARLINK-76 3.2 02:05:36 29° SW 02:07:16 73° SE 02:10:54 10° ENE
STARLINK-70 3.2 02:05:59 29° SW 02:07:44 78° SE 02:11:25 10° NE
SL-16 R/B 2.9 02:04:36 20° WSW 02:08:11 42° WNW 02:13:34 10° NNE
STARLINK-23 3.2 02:07:10 29° SW 02:08:55 76° SE 02:12:33 10° NE
STARLINK-1049 3.9 02:07:06 25° SSW 02:09:17 56° SE 02:13:21 10° ENE
STARLINK-32 3.2 02:08:37 28° SW 02:10:22 78° SE 02:13:57 10° NE
STARLINK-40 3.2 02:10:18 27° SW 02:12:09 81° SE 02:15:47 10° NE
COSMOS 2428 4.2 02:07:53 10° SSE 02:12:45 30° ESE 02:17:38 10° NE
CZ-2D R/B 3.4 02:08:55 10° N 02:13:14 27° WNW 02:16:21 16° WSW
STARLINK-44 3.2 02:11:49 26° SW 02:13:44 84° SE 02:17:22 10° NE
STARLINK-1051 3.8 02:11:51 23° SSW 02:14:14 61° SE 02:18:19 10° ENE
Cosmos 2221 3.7 02:10:57 10° NNW 02:14:34 26° W 02:16:17 20° SW
Cosmos 773 Rocket 4.0 02:11:02 18° SSW 02:14:59 86° ESE 02:20:18 10° NNE
STARLINK-37 3.2 02:13:33 25° SW 02:15:34 88° NW 02:19:12 10° NE
USA 215 4.4 02:15:21 18° SW 02:16:29 19° WSW 02:20:51 10° W
STARLINK-36 3.2 02:14:56 24° SW 02:16:59 89° SE 02:20:37 10° NE
STARLINK-60 3.5 02:14:22 10° WNW 02:17:17 34° SW 02:20:13 10° SSE
FALCON 9 DEB 3.9 02:15:21 10° NW 02:18:45 56° NNE 02:22:10 10° ESE
Cosmos 1315 Rocket 4.3 02:17:22 10° NW 02:20:17 20° W 02:21:25 18° WSW
STARLINK-63 3.2 02:18:10 22° WSW 02:20:22 81° NW 02:23:59 10° NE
BREEZE-M DEB (TANK) 4.0 02:22:48 10° SSE 02:22:48 10° SSE 02:22:49 10° SSE
STARLINK-35 3.2 02:19:32 22° WSW 02:21:43 83° NW 02:25:18 10° NE
STARLINK-51 3.2 02:21:14 21° WSW 02:23:31 80° NW 02:27:08 10° NE
Cosmos 2366 rocket 4.1 02:17:43 10° S 02:23:57 82° E 02:30:18 10° N
STARLINK-1028 3.6 02:21:25 20° SW 02:24:10 74° SE 02:28:18 10° ENE
STARLINK-30 3.3 02:22:49 20° WSW 02:25:11 78° NW 02:28:50 10° NE
STARLINK-72 3.3 02:24:13 20° WSW 02:26:34 75° NW 02:30:09 10° NE
Shenzhou-11 Module 1.3 02:26:47 15° W 02:28:40 86° N 02:31:07 10° E
STARLINK-1021 3.6 02:26:14 19° SW 02:29:10 81° SE 02:33:19 10° NE
Cosmos 2058 4.3 02:27:00 16° WSW 02:29:16 25° WNW 02:32:48 10° NNW
STARLINK-59 3.4 02:27:25 18° WSW 02:29:56 67° NW 02:33:30 10° NE
Cosmos 2360 Rocket 2.4 02:25:44 17° SW 02:30:07 63° WNW 02:35:44 10° NNE
STARLINK-1010 3.6 02:28:17 18° SW 02:31:25 88° SE 02:35:41 10° NE
STARLINK-56 3.4 02:29:04 17° WSW 02:31:41 68° NW 02:35:19 10° NE
Cosmos 1933 4.3 02:28:00 10° N 02:31:56 48° E 02:35:49 10° SSE
STARLINK-73 3.5 02:30:38 17° WSW 02:33:19 66° NW 02:36:57 10° NE
STARLINK-1019 3.6 02:30:59 17° SW 02:34:06 88° SE 02:38:16 10° NE
STARLINK-38 3.5 02:32:12 16° WSW 02:34:58 64° NW 02:38:35 10° NE
Cosmos 1328 Rocket 4.1 02:31:08 10° N 02:35:30 62° E 02:39:48 10° SSE
STARLINK-65 3.5 02:33:46 15° WSW 02:36:35 62° NW 02:40:13 10° NE
STARLINK-68 3.7 02:34:23 15° WSW 02:37:18 58° NNW 02:40:55 10° NE
STARLINK-53 3.7 02:35:24 15° WSW 02:38:19 57° NNW 02:41:55 10° NE
STARLINK-1012 3.6 02:35:47 15° SW 02:39:06 86° NW 02:43:16 10° NE
BREEZE-M DEB (TANK) 4.3 02:35:22 13° SSW 02:39:32 28° SSE 02:42:18 10° E
STARLINK-50 3.7 02:37:26 14° WSW 02:40:35 62° NNW 02:44:22 10° NE
SL-24 DEB 4.4 02:38:40 10° N 02:43:11 57° W 02:47:41 10° SSW
Cosmos 2333 Rocket 2.5 02:38:01 10° S 02:43:35 65° ESE 02:49:13 10° NNE
Meteor 1-28 Rocket 3.4 02:41:18 10° S 02:44:57 51° W 02:48:37 10° NNW
STARLINK-71 3.9 02:41:45 12° WSW 02:45:21 58° NNW 02:49:20 10° NE
Landsat 5 3.8 02:41:42 10° SSE 02:46:12 79° ENE 02:50:39 10° N
Cosmos 2219 Rocket 2.5 02:42:11 10° S 02:47:42 66° ESE 02:53:15 10° NNE
STARLINK-1026 3.7 02:45:20 13° WSW 02:49:03 73° NW 02:53:12 10° NE
Cosmos 2322 3.8 02:43:31 11° SSW 02:49:06 81° WNW 02:54:52 10° NNE
STARLINK-29 3.5 02:47:11 10° WNW 02:50:08 35° SW 02:53:04 10° SSE
Cosmos 1727 Rocket 4.0 02:44:34 10° N 02:50:47 89° E 02:56:57 10° S
ADEOS II 3.1 02:46:28 10° N 02:51:02 31° WNW 02:55:35 10° SW
STARLINK-1013 3.8 02:50:08 11° WSW 02:54:03 67° NW 02:58:11 10° NE
ERS-2 2.5 02:51:03 10° S 02:54:34 45° W 02:58:06 10° NNW
IDEFIX/ARIANE 42P 2.6 02:49:32 10° NNE 02:54:50 85° WNW 03:00:05 10° SSW
SL-4 R/B 3.2 02:51:12 10° WNW 02:55:07 26° SW 02:58:53 10° S
Cosmos 2263 Rocket 4.0 02:53:40 10° WNW 02:55:20 11° W 02:57:01 10° WSW
Cosmos 1606 2.7 02:52:18 10° NNW 02:56:02 64° W 02:59:47 10° S
STARLINK-25 4.1 02:53:49 10° WSW 02:57:07 41° NNW 03:00:25 10° NE
ATLAS 5 CENTAUR R/B 3.0 02:54:34 10° S 02:58:09 30° ESE 03:01:59 10° NE
Cosmos 2333 4.3 02:52:57 10° SSW 02:58:32 72° WNW 03:04:10 10° NNE
STARLINK-1329 4.4 02:54:45 10° NW 02:58:44 54° NNE 03:02:42 10° ESE
STARLINK-1009 3.9 02:54:56 10° WSW 02:59:01 62° NNW 03:03:09 10° NE
ARIANE 5 R/B 3.1 02:55:40 10° N 03:00:20 39° WNW 03:04:56 10° SW
BREEZE-M R/B 3.1 02:57:24 10° NW 03:00:21 44° NNE 03:02:40 10° E
STARLINK-1362 4.3 02:59:17 10° NW 03:03:17 58° NNE 03:07:17 10° ESE
STARLINK-1015 4.0 02:59:56 10° WSW 03:04:00 57° NNW 03:08:07 10° NE
STARLINK-1320 3.0 03:01:26 10° NW 03:04:34 79° NE 03:07:40 10° ESE
STARLINK-1322 3.0 03:01:47 10° NW 03:04:55 80° NE 03:08:02 10° SE
CZ-2C R/B 2.8 03:01:17 10° N 03:05:03 64° WNW 03:08:51 10° SSW
STARLINK-1324 3.0 03:02:06 10° NW 03:05:14 80° NE 03:08:21 10° SE
CZ-2D R/B 4.1 03:01:23 10° N 03:05:26 43° WNW 03:09:34 10° SW
STARLINK-1294 3.0 03:02:24 10° NW 03:05:33 81° NE 03:08:42 10° SE
Cosmos 1408 Rocket 3.5 03:01:24 10° SSW 03:05:41 69° W 03:09:59 10° N
STARLINK-1261 3.0 03:02:48 10° NW 03:05:55 81° NE 03:09:02 10° SE
STARLINK-1325 2.9 03:03:09 10° NW 03:06:16 82° NE 03:09:23 10° SE
STARLINK-1333 2.9 03:03:30 10° NW 03:06:38 83° NE 03:09:45 10° SE
STARLINK-1334 2.9 03:03:48 10° NW 03:06:55 83° NE 03:10:02 10° SE
STARLINK-1326 2.9 03:04:07 10° NW 03:07:14 84° NE 03:10:21 10° SE
STARLINK-1323 2.9 03:04:30 10° NW 03:07:38 84° NE 03:10:45 10° SE
STARLINK-1373 4.1 03:03:45 10° NW 03:07:45 63° NNE 03:11:45 10° ESE
STARLINK-1349 2.9 03:04:48 10° NW 03:07:55 85° NNE 03:11:02 10° SE
STARLINK-1336 2.9 03:05:07 10° NW 03:08:15 86° NE 03:11:21 10° SE
STARLINK-1331 2.9 03:05:30 10° NW 03:08:38 86° NE 03:11:45 10° SE
STARLINK-1344 2.9 03:05:48 10° NW 03:08:56 87° NNE 03:12:02 10° SE
STARLINK-1016 4.1 03:04:57 10° WSW 03:09:00 53° NNW 03:13:04 10° NE
STARLINK-1343 2.9 03:06:11 10° NW 03:09:18 88° NNE 03:12:25 10° SE
STARLINK-1346 2.9 03:06:27 10° NW 03:09:37 88° NNE 03:12:46 10° SE
STARLINK-1328 2.9 03:06:54 10° NW 03:10:02 89° NE 03:13:09 10° SE
STARLINK-1354 2.9 03:07:12 10° NW 03:10:19 89° NE 03:13:26 10° SE
Cosmos 1844 3.9 03:04:53 10° NNW 03:10:35 57° WSW 03:16:12 10° S
STARLINK-1347 2.8 03:07:29 10° NW 03:10:36 90° NW 03:13:43 10° SE
STARLINK-1357 2.8 03:07:55 10° NW 03:11:02 89° SW 03:14:09 10° SE
STARLINK-1335 2.8 03:08:12 10° NW 03:11:19 89° SW 03:14:26 10° SE
STARLINK-1327 2.8 03:08:32 10° NW 03:11:40 88° SW 03:14:47 10° SE
STARLINK-1340 2.8 03:08:50 10° NW 03:11:58 87° SW 03:15:04 10° SE
STARLINK-1356 2.8 03:09:14 10° NW 03:12:21 87° SSW 03:15:28 10° SE
STARLINK-1390 4.0 03:08:24 10° NW 03:12:27 68° NE 03:16:29 10° ESE
STARLINK-1345 2.8 03:09:32 10° NW 03:12:40 86° SW 03:15:46 10° SE
STARLINK-1355 2.8 03:09:54 10° NW 03:13:01 85° SW 03:16:07 10° SE
STARLINK-1321 2.8 03:10:15 10° NW 03:13:22 85° SSW 03:16:28 10° SE
STARLINK-1358 2.8 03:10:37 10° NW 03:13:45 84° SW 03:16:52 10° SE
STARLINK-1008 4.3 03:09:58 10° WSW 03:14:01 49° NNW 03:18:03 10° NE
STARLINK-1332 2.8 03:10:55 10° NW 03:14:02 83° SW 03:17:08 10° SE
STARLINK-1348 2.8 03:11:15 10° NW 03:14:22 83° SW 03:17:29 10° SE
STARLINK-1330 2.8 03:11:34 10° NW 03:14:42 82° SW 03:17:48 10° SE
Cosmos 1680 Rocket 4.0 03:09:42 10° S 03:14:53 64° ESE 03:20:08 10° NNE
STARLINK-1363 2.8 03:11:54 10° NW 03:15:02 82° SW 03:18:09 10° SE
Meteor 2-3 Rocket 3.8 03:12:00 10° SSW 03:17:35 71° W 03:23:11 10° N
Cosmos 2344 3.8 03:12:22 10° SSW 03:19:53 71° ESE 03:27:41 10° NE
